| time (UTC) | temp C | wind direction | speed KPH | gust KPH | rain 1hr cm | rain 24hr cm | rain mn cm | humidity % | barometer mb |
| 20260506203102 | 10 | 277 | 4.8 | 9.7 | 0.00 | 0.00 | 0.00 | 86 | 1012.2 |
| 20260506201558 | 10 | 283 | 3.2 | 6.4 | 0.00 | 0.00 | 0.00 | 85 | 1012.1 |
| 20260506200016 | 11 | 266 | 1.6 | 6.4 | 0.00 | 0.00 | 0.00 | 84 | 1011.8 |
| 20260506194533 | 11 | 276 | 1.6 | 9.7 | 0.00 | 0.03 | 0.00 | 83 | 1011.7 |
| 20260506193034 | 11 | 281 | 1.6 | 6.4 | 0.00 | 0.03 | 0.00 | 82 | 1011.3 |
| 20260506191526 | 12 | 273 | 3.2 | 6.4 | 0.00 | 0.03 | 0.00 | 79 | 1011.1 |
| 20260506190109 | 12 | 258 | 3.2 | 4.8 | 0.00 | 0.03 | 0.00 | 78 | 1011.0 |
| 20260506183137 | 13 | 281 | 0.0 | 4.8 | 0.00 | 0.05 | 0.00 | 73 | 1010.6 |
| 20260506180121 | 15 | 333 | 0.0 | 3.2 | 0.00 | 0.05 | 0.00 | 65 | 1010.7 |
| 20260506174508 | 16 | 118 | 3.2 | 9.7 | 0.00 | 0.13 | 0.00 | 59 | 1010.6 |
| 20260506173002 | 16 | 125 | 4.8 | 8.0 | 0.00 | 0.13 | 0.00 | 57 | 1010.6 |
| 20260506171538 | 16 | 135 | 6.4 | 11.3 | 0.00 | 0.13 | 0.00 | 56 | 1010.5 |
| 20260506170021 | 17 | 64 | 4.8 | 11.3 | 0.00 | 0.13 | 0.00 | 56 | 1010.6 |
| 20260506164535 | 17 | 138 | 0.0 | 4.8 | 0.00 | 0.13 | 0.00 | 58 | 1010.7 |
| 20260506163053 | 16 | 133 | 4.8 | 8.0 | 0.00 | 0.13 | 0.00 | 57 | 1010.6 |
| 20260506161619 | 16 | 141 | 0.0 | 3.2 | 0.00 | 0.13 | 0.00 | 59 | 1010.8 |
| 20260506160108 | 15 | 129 | 1.6 | 9.7 | 0.00 | 0.13 | 0.00 | 63 | 1010.8 |
| 20260506154631 | 15 | 171 | 3.2 | 12.9 | 0.00 | 0.13 | 0.00 | 65 | 1010.9 |
| 20260506153144 | 15 | 156 | 6.4 | 12.9 | 0.00 | 0.13 | 0.00 | 67 | 1011.0 |
| 20260506151649 | 15 | 127 | 9.7 | 16.1 | 0.00 | 0.13 | 0.00 | 67 | 1011.0 |
| 20260506150115 | 15 | 177 | 6.4 | 19.3 | 0.00 | 0.13 | 0.00 | 67 | 1011.1 |
| 20260506144700 | 16 | 179 | 11.3 | 17.7 | 0.00 | 0.23 | 0.00 | 65 | 1011.0 |
| 20260506141509 | 16 | 128 | 4.8 | 14.5 | 0.00 | 0.23 | 0.00 | 60 | 1011.0 |
| 20260506134512 | 16 | 100 | 4.8 | 11.3 | 0.00 | 0.23 | 0.00 | 59 | 1011.1 |
| 20260506133038 | 17 | 129 | 4.8 | 12.9 | 0.00 | 0.23 | 0.00 | 59 | 1011.1 |
| 20260506131655 | 17 | 89 | 1.6 | 9.7 | 0.00 | 0.23 | 0.00 | 56 | 1011.1 |
| 20260506124504 | 16 | 75 | 11.3 | 16.1 | 0.00 | 0.23 | 0.00 | 62 | 1011.4 |
| 20260506123030 | 16 | 98 | 8.0 | 12.9 | 0.00 | 0.23 | 0.00 | 58 | 1011.5 |
| 20260506121547 | 16 | 93 | 6.4 | 17.7 | 0.00 | 0.23 | 0.00 | 60 | 1011.4 |
| 20260506120057 | 16 | 89 | 6.4 | 16.1 | 0.00 | 0.23 | 0.00 | 61 | 1011.4 |
| 20260506114622 | 17 | 137 | 11.3 | 19.3 | 0.00 | 0.43 | 0.00 | 53 | 1011.5 |
| 20260506113127 | 17 | 159 | 6.4 | 14.5 | 0.00 | 0.43 | 0.00 | 49 | 1011.5 |
| 20260506111639 | 17 | 178 | 14.5 | 17.7 | 0.00 | 0.43 | 0.00 | 48 | 1011.6 |
| 20260506110119 | 17 | 317 | 4.8 | 8.0 | 0.00 | 0.43 | 0.00 | 50 | 1011.8 |
| 20260506104639 | 16 | 243 | 3.2 | 12.9 | 0.00 | 0.48 | 0.00 | 51 | 1011.9 |
| 20260506103201 | 16 | 183 | 4.8 | 17.7 | 0.00 | 0.48 | 0.00 | 51 | 1011.8 |
| 20260506101532 | 16 | 84 | 3.2 | 16.1 | 0.00 | 0.48 | 0.00 | 53 | 1011.9 |
| 20260506100003 | 16 | 276 | 4.8 | 14.5 | 0.00 | 0.48 | 0.00 | 54 | 1012.0 |
| 20260506094614 | 15 | 211 | 11.3 | 22.5 | 0.00 | 0.48 | 0.00 | 54 | 1012.1 |
| 20260506093134 | 15 | 241 | 14.5 | 29.0 | 0.00 | 0.48 | 0.00 | 58 | 1011.9 |
| 20260506091533 | 15 | 239 | 14.5 | 29.0 | 0.00 | 0.48 | 0.00 | 56 | 1011.9 |
| 20260506090014 | 15 | 294 | 11.3 | 30.6 | 0.00 | 0.48 | 0.00 | 58 | 1011.8 |
| 20260506084532 | 14 | 238 | 14.5 | 29.0 | 0.00 | 0.48 | 0.00 | 59 | 1011.8 |
| 20260506083009 | 14 | 254 | 16.1 | 25.7 | 0.00 | 0.48 | 0.00 | 60 | 1011.8 |
| 20260506081532 | 13 | 240 | 9.7 | 19.3 | 0.00 | 0.48 | 0.00 | 61 | 1011.8 |
| 20260506073044 | 13 | 261 | 14.5 | 27.4 | 0.00 | 0.48 | 0.00 | 63 | 1011.7 |
| 20260506071613 | 13 | 251 | 4.8 | 29.0 | 0.00 | 0.48 | 0.00 | 65 | 1011.5 |
| 20260506070150 | 12 | 237 | 6.4 | 17.7 | 0.00 | 0.48 | 0.00 | 65 | 1011.5 |
| 20260506061653 | 11 | 239 | 6.4 | 17.7 | 0.00 | 0.48 | 0.00 | 70 | 1011.4 |
| 20260506060201 | 11 | 212 | 8.0 | 22.5 | 0.00 | 0.48 | 0.00 | 72 | 1011.2 |
| 20260506050138 | 8 | 307 | 0.0 | 9.7 | 0.00 | 0.48 | 0.00 | 79 | 1010.7 |
| 20260506044658 | 7 | 244 | 1.6 | 9.7 | 0.00 | 0.48 | 0.00 | 84 | 1011.0 |
| 20260506043015 | 7 | 352 | 0.0 | 4.8 | 0.00 | 0.48 | 0.00 | 84 | 1011.0 |
| 20260506041531 | 7 | 342 | 0.0 | 3.2 | 0.00 | 0.48 | 0.00 | 83 | 1011.0 |
| 20260506040027 | 8 | 352 | 1.6 | 6.4 | 0.00 | 0.48 | 0.00 | 82 | 1011.1 |
| 20260506034534 | 8 | 359 | 1.6 | 4.8 | 0.00 | 0.48 | 0.00 | 81 | 1011.2 |
| 20260506033040 | 8 | 347 | 1.6 | 6.4 | 0.00 | 0.48 | 0.00 | 80 | 1011.2 |
| 20260506031558 | 8 | 273 | 1.6 | 6.4 | 0.00 | 0.48 | 0.00 | 83 | 1011.3 |
| 20260506030032 | 7 | 312 | 1.6 | 3.2 | 0.00 | 0.48 | 0.00 | 85 | 1011.3 |
| 20260506024554 | 7 | 23 | 1.6 | 6.4 | 0.00 | 0.48 | 0.00 | 86 | 1011.4 |
| 20260506023053 | 8 | 289 | 0.0 | 3.2 | 0.00 | 0.48 | 0.00 | 84 | 1011.2 |
| 20260506021608 | 8 | 306 | 0.0 | 6.4 | 0.00 | 0.48 | 0.00 | 83 | 1011.1 |
| 20260506020048 | 8 | 306 | 0.0 | 4.8 | 0.00 | 0.48 | 0.00 | 83 | 1011.1 |
| 20260506014616 | 7 | 261 | 3.2 | 11.3 | 0.00 | 0.48 | 0.00 | 87 | 1011.2 |
| 20260506013119 | 7 | 297 | 0.0 | 4.8 | 0.00 | 0.48 | 0.00 | 88 | 1011.2 |
| 20260506011633 | 7 | 29 | 0.0 | 3.2 | 0.00 | 0.48 | 0.00 | 88 | 1011.1 |
| 20260506010113 | 7 | 283 | 0.0 | 3.2 | 0.00 | 0.48 | 0.00 | 89 | 1011.3 |
| 20260506004635 | 7 | 283 | 1.6 | 9.7 | 0.00 | 0.48 | 0.00 | 89 | 1011.4 |
| 20260506003145 | 7 | 262 | 1.6 | 6.4 | 0.00 | 0.48 | 0.00 | 89 | 1011.7 |
| 20260506001651 | 8 | 279 | 1.6 | 3.2 | 0.00 | 0.48 | 0.00 | 89 | 1012.0 |
| 20260505231527 | 10 | 210 | 1.6 | 6.4 | 0.00 | 0.48 | 0.00 | 80 | 1012.1 |
| 20260505230031 | 11 | 266 | 0.0 | 3.2 | 0.00 | 0.48 | 0.00 | 78 | 1012.0 |
| 20260505224539 | 11 | 306 | 4.8 | 17.7 | 0.00 | 0.48 | 0.00 | 77 | 1012.0 |
| 20260505223104 | 11 | 284 | 12.9 | 27.4 | 0.00 | 0.48 | 0.00 | 77 | 1012.0 |
| 20260505221626 | 11 | 280 | 14.5 | 30.6 | 0.00 | 0.48 | 0.00 | 76 | 1011.6 |
| 20260505220010 | 11 | 287 | 17.7 | 30.6 | 0.00 | 0.48 | 0.48 | 77 | 1011.9 |
| 20260505214651 | 11 | 286 | 16.1 | 22.5 | 0.00 | 0.48 | 0.48 | 78 | 1012.0 |
| 20260505213120 | 10 | 262 | 6.4 | 16.1 | 0.00 | 0.48 | 0.48 | 87 | 1012.1 |
| 20260505211628 | 10 | 242 | 1.6 | 9.7 | 0.00 | 0.48 | 0.48 | 87 | 1012.2 |
| 20260505210016 | 11 | 274 | 3.2 | 14.5 | 0.00 | 0.48 | 0.48 | 88 | 1012.0 |
| 20260505204633 | 10 | 279 | 3.2 | 9.7 | 0.00 | 0.48 | 0.48 | 89 | 1012.0 |